Theta_e
325 319 316 318 319 318 316 314 312 315 318 320 321 320 324 334 335 335 337 336 337 339 345 348 349 352 353 355 358 360 361 364 362 360 357 356 355 358 359 357 359 356 357 353
320 316 320 319 319 317 316 313 313 316 319 321 319 318 323 327 332 334 335 338 338 340 344 341 335 341 350 354 358 360 362 365 364 361 361 360 360 359 360 361 362 362 359 357
317 319 319 318 317 315 316 312 312 313 317 318 316 314 319 326 330 334 336 339 341 342 339 336 332 334 339 349 355 358 362 364 366 365 362 361 361 360 358 358 360 360 361 358
319 321 317 317 315 316 313 315 314 312 312 309 315 307 315 322 324 330 334 337 339 342 338 336 335 334 339 347 353 358 361 364 364 366 362 362 355 353 355 357 359 361 362 360
317 317 317 315 315 315 313 316 314 313 312 311 312 308 317 321 323 329 334 336 337 342 343 339 338 341 342 350 351 354 359 361 364 364 364 360 359 356 356 359 361 361 364 365
319 321 318 318 317 315 317 315 314 314 313 306 311 310 311 319 322 326 333 337 337 339 344 345 347 348 350 351 351 352 357 361 363 363 363 363 361 359 358 359 358 359 359 361
316 316 319 318 315 316 316 313 306 305 304 306 313 312 316 322 325 326 330 337 339 342 343 345 346 347 350 349 350 352 357 360 363 361 361 361 361 362 362 359 355 358 369 357
309 307 316 320 317 315 315 314 307 299 301 305 315 308 317 326 330 332 336 339 341 342 345 345 346 348 346 349 354 354 355 357 359 359 360 361 360 353 348 351 352 354 355 357
309 309 317 316 317 317 313 310 314 308 308 305 311 314 322 326 327 331 336 339 340 343 346 347 345 346 349 348 349 354 358 361 360 359 360 355 355 354 352 354 356 354 359 360
314 310 314 313 315 315 315 316 308 309 301 300 307 308 311 321 325 330 334 337 339 342 343 345 348 349 348 348 350 355 358 357 355 354 357 355 355 353 354 354 354 356 359 365
316 313 309 315 313 312 312 311 312 311 309 304 302 308 323 323 326 328 335 337 338 342 344 344 347 350 352 351 349 348 352 354 354 355 358 357 356 357 361 359 360 363 365 367
316 313 309 312 317 317 316 314 313 308 308 310 309 309 326 326 326 331 336 337 336 341 345 346 346 345 346 347 349 349 351 351 352 354 354 351 354 357 357 357 355 358 362 368
316 311 308 310 315 319 316 317 316 314 314 309 306 310 329 329 329 331 336 337 338 340 344 345 344 343 343 343 343 346 347 348 349 349 348 349 351 350 351 352 354 354 356 357
318 313 311 306 310 315 312 314 315 313 309 311 310 313 324 327 328 331 334 337 339 339 339 336 335 336 337 338 338 340 339 340 339 342 346 350 351 352 353 354 355 352 354 355
316 310 311 312 313 314 314 314 314 313 314 309 312 313 322 327 331 334 336 335 331 331 331 332 331 332 333 334 336 336 336 337 338 339 339 341 345 347 351 352 354 355 352 352
317 313 314 311 314 315 313 314 314 315 315 314 315 315 325 332 331 329 329 329 328 326 327 328 329 330 330 330 332 333 334 335 336 337 337 339 341 343 343 346 348 350 350 351
314 315 313 309 313 313 309 314 314 315 316 316 311 321 327 326 326 326 327 327 326 325 326 327 328 328 329 329 331 331 333 334 335 335 336 337 338 338 339 341 342 342 343 346
316 317 315 311 312 303 314 319 318 315 316 318 320 322 326 326 326 326 328 326 325 325 326 327 327 328 328 329 329 332 332 333 333 333 333 334 333 334 336 337 337 338 339 340
322 318 312 309 308 311 313 316 316 315 315 320 320 322 323 324 324 323 326 326 325 326 326 327 328 328 329 329 330 330 329 329 327 325 324 326 327 327 327 327 331 335 335 336
321 321 315 312 306 303 315 319 322 321 310 323 323 322 322 323 317 322 326 325 325 326 327 326 328 328 328 328 328 327 324 323 324 322 322 323 323 323 322 324 325 326 329 334
314 315 311 311 308 312 319 320 322 309 314 323 324 324 323 320 323 325 326 325 326 326 325 326 327 326 325 325 324 323 322 320 321 321 321 321 322 321 321 320 319 318 319 322
314 311 310 313 308 305 322 320 315 321 325 324 325 324 322 324 324 324 324 324 324 324 324 325 324 323 324 322 321 319 319 320 318 318 319 321 323 321 320 321 319 318 317 317
312 318 317 317 316 322 324 324 324 325 325 324 324 324 325 323 323 323 323 322 322 322 320 322 321 319 318 319 320 318 320 317 317 318 319 318 319 317 318 315 314 313 314 313
319 320 320 319 319 320 322 323 325 326 325 326 326 326 325 323 323 322 322 321 320 319 317 315 313 313 314 319 321 321 318 317 316 316 315 315 316 316 315 314 314 313 312 313
321 321 320 319 320 320 321 324 325 325 326 325 326 325 324 323 321 320 320 320 315 312 312 312 311 311 313 316 319 320 318 317 314 314 313 313 314 315 313 314 314 313 314 313
321 321 317 315 324 324 323 325 326 324 324 324 324 323 323 322 321 321 318 314 313 312 313 312 311 311 313 315 318 320 320 318 316 313 312 311 312 312 312 312 312 311 307 305
Wind_Speed
12 11 11 8 5 6 6 7 6 2 1 5 7 8 7 11 12 13 13 14 13 11 8 6 4 9 11 10 11 12 12 11 10 10 10 10 10 9 8 9 12 12 10 10
10 16 7 2 5 5 8 7 3 5 4 6 2 7 1 5 9 11 11 14 13 14 10 6 2 5 13 11 12 12 13 12 12 9 8 7 6 7 7 5 7 10 11 11
18 12 5 5 5 8 9 5 5 7 6 3 4 10 8 9 4 5 10 10 14 15 14 13 13 9 11 12 11 11 12 12 12 11 8 6 5 5 6 7 7 8 10 11
20 12 5 6 7 7 8 3 4 5 10 4 3 6 6 5 6 6 9 12 14 17 17 13 11 6 7 8 7 8 9 11 11 11 10 12 8 8 6 6 5 6 10 10
17 10 14 11 3 4 7 4 0 1 7 8 9 9 12 4 8 9 9 3 9 19 22 19 15 10 7 6 8 6 8 10 8 8 11 9 9 7 6 6 7 8 7 10
17 5 5 6 0 4 5 7 5 5 8 12 7 8 8 6 4 7 10 8 7 9 20 17 16 12 10 7 7 7 7 7 7 7 8 10 9 8 7 6 7 7 7 8
20 15 9 6 7 5 14 12 9 6 8 2 5 7 11 7 5 6 8 10 10 10 10 10 8 9 7 5 5 5 6 5 5 5 6 6 7 8 9 9 8 7 6 7
18 20 19 9 12 10 12 11 8 4 8 5 5 6 8 7 7 8 8 10 11 10 11 11 8 1 3 3 6 5 3 2 3 3 4 4 5 6 7 7 6 6 6 6
16 15 11 5 7 12 9 11 8 11 4 7 4 5 11 8 8 8 10 11 10 9 10 8 7 9 6 6 5 7 5 4 4 4 3 4 5 7 7 7 6 7 8 7
13 13 9 7 9 4 8 3 7 6 4 9 7 3 5 8 10 9 10 12 12 9 9 10 10 9 6 6 7 6 6 4 3 0 1 3 4 5 7 7 10 10 10 9
12 8 10 11 9 12 8 11 6 6 6 8 7 3 11 6 3 11 11 11 10 10 11 11 11 9 8 7 6 6 5 5 4 4 4 4 5 5 6 7 9 9 8 8
9 8 11 8 4 2 4 2 7 9 10 3 9 4 8 6 4 6 10 11 9 8 9 11 9 8 7 6 5 6 5 6 6 6 4 4 4 4 6 5 5 5 4 4
10 7 10 12 11 6 6 4 5 7 6 6 9 6 8 9 8 6 11 9 9 8 8 8 10 8 7 7 5 6 6 7 7 6 7 8 8 7 6 6 6 5 6 4
11 9 9 4 5 9 9 8 4 8 7 2 5 2 12 8 6 8 9 9 10 9 8 10 9 8 8 8 9 8 9 11 11 11 10 10 11 11 9 9 9 9 8 8
13 8 5 4 4 2 4 7 4 7 6 8 11 7 8 5 7 8 11 11 11 10 9 8 6 7 8 9 9 10 11 11 12 11 11 10 10 11 11 12 11 10 11 11
10 5 7 4 5 9 7 5 3 2 3 8 6 2 5 9 10 11 11 10 9 8 8 6 8 8 9 10 10 11 12 12 12 11 12 11 11 11 10 9 10 11 12 12
12 8 9 9 5 6 9 5 2 0 3 6 8 11 9 11 12 10 10 8 9 7 7 7 8 10 10 11 11 12 13 12 12 12 12 12 13 13 13 13 12 11 12 12
14 13 8 7 8 10 7 2 2 5 2 3 2 9 9 10 10 10 8 7 7 6 6 7 7 8 10 11 11 11 11 10 11 12 13 14 15 16 16 16 15 13 12 12
15 10 5 7 12 5 6 6 5 6 4 4 8 10 11 11 11 9 7 7 6 6 6 7 8 9 9 11 12 12 13 13 12 12 13 15 16 16 15 16 17 17 16 14
10 7 7 5 6 7 10 10 4 2 7 11 10 12 13 11 9 11 7 5 5 7 8 9 9 9 10 12 12 12 11 11 13 15 16 15 15 16 17 18 17 15 14 17
9 6 8 9 5 6 6 9 7 7 7 11 11 11 10 6 7 9 6 5 6 6 8 8 8 9 9 11 11 12 12 13 14 15 16 15 15 15 15 13 13 14 14 15
8 8 6 2 4 6 11 11 5 5 6 10 11 8 7 9 8 7 6 5 5 7 9 8 8 8 9 10 11 11 12 14 14 15 14 15 15 14 13 16 14 12 12 15
5 5 2 5 6 5 13 5 6 5 9 9 10 9 9 9 6 4 4 4 6 8 5 7 7 7 7 9 8 10 12 13 14 14 15 16 16 14 13 12 13 11 11 10
4 2 2 7 6 8 8 5 6 11 11 11 11 10 8 8 6 4 4 6 6 4 7 7 7 8 8 9 9 9 11 13 14 14 15 13 14 13 12 9 9 10 9 8
4 8 6 5 6 7 6 8 10 13 13 13 11 9 8 7 5 4 6 6 6 6 6 7 8 8 10 10 10 10 11 12 13 13 13 12 12 13 12 10 9 9 10 9
7 6 6 2 13 2 14 13 14 14 13 12 12 11 8 6 7 7 8 7 6 6 7 7 8 9 10 10 10 9 11 12 12 12 10 10 11 11 10 10 11 8 12 16
Wind_Direction
207 233 222 48 21 345 306 290 295 336 221 237 238 261 129 176 204 198 188 174 174 174 146 138 351 290 234 225 231 227 222 221 207 205 206 210 217 222 217 228 223 228 233 221
189 229 87 236 282 279 271 282 102 100 151 230 180 257 105 164 203 221 204 174 174 148 121 119 168 258 264 230 232 229 231 220 212 213 221 233 236 225 238 230 221 214 223 224
214 195 126 246 240 264 217 268 115 92 151 184 256 237 186 133 177 207 202 191 166 154 149 154 212 195 229 245 234 233 237 232 225 225 216 214 231 249 228 225 229 222 222 223
219 132 202 226 263 270 226 119 121 133 250 28 257 312 151 128 123 137 162 182 185 163 166 183 229 219 211 239 251 240 240 234 227 220 230 227 237 229 217 236 228 216 211 219
199 195 217 236 267 316 59 125 32 286 275 275 163 264 118 155 123 102 81 97 215 182 173 198 215 219 238 259 248 226 218 233 233 224 235 233 237 251 250 236 229 245 241 231
205 140 226 246 166 300 162 154 188 216 271 252 86 281 120 68 65 103 94 89 120 172 164 203 222 245 264 253 233 217 205 226 233 228 229 240 249 254 272 262 262 239 229 221
210 184 194 231 240 190 225 217 228 220 205 37 95 249 57 102 79 69 86 112 121 137 151 181 209 221 214 200 199 205 204 211 225 222 227 246 261 263 271 271 266 269 257 229
196 199 222 198 246 252 213 284 273 234 249 198 136 236 97 91 95 105 100 122 128 144 138 146 150 207 198 177 151 161 158 191 168 194 206 211 257 268 288 269 270 250 262 267
196 213 185 190 222 260 162 229 350 293 212 283 133 139 174 147 122 114 109 125 131 117 104 89 87 86 123 163 132 111 105 97 127 167 180 200 241 260 283 275 253 248 248 260
187 178 183 148 185 194 281 41 206 204 190 246 150 274 307 152 147 138 136 132 135 131 127 121 99 94 98 98 91 92 90 81 70 318 263 277 283 232 262 262 253 266 273 259
168 239 150 184 205 192 174 209 230 314 308 304 249 160 66 85 120 152 142 137 134 134 125 115 98 88 85 86 81 86 88 88 78 67 24 345 325 295 268 252 248 248 249 254
213 229 170 121 103 252 312 329 213 237 167 224 324 11 57 66 145 129 135 146 123 115 119 119 107 92 88 75 53 60 42 46 44 30 355 332 306 303 298 300 309 296 284 249
177 218 136 148 160 168 189 156 310 293 314 251 297 69 69 89 97 141 138 136 127 119 113 105 65 56 61 65 42 28 25 23 1 344 337 324 316 310 299 289 297 306 301 276
200 193 239 180 124 142 159 178 223 289 295 326 257 109 85 74 101 108 109 126 110 91 87 81 82 65 56 40 33 22 22 11 13 3 351 326 316 311 295 296 288 294 301 293
220 182 238 356 61 105 123 167 194 268 347 290 9 338 62 75 107 109 111 117 115 96 81 85 73 49 42 35 10 8 4 0 355 348 341 345 330 317 305 299 294 294 294 294
218 117 179 141 166 164 158 152 180 233 277 277 298 218 84 112 115 112 99 107 101 88 78 41 41 29 14 10 358 357 353 349 343 336 330 326 320 317 318 316 300 293 288 278
188 155 196 147 148 148 198 160 199 309 260 316 289 79 141 138 126 123 121 121 111 87 60 30 18 11 1 352 354 355 346 343 342 339 335 333 333 329 325 321 313 304 300 291
191 184 205 123 170 217 76 113 241 277 324 260 121 140 145 132 124 117 112 109 92 65 40 22 4 355 353 356 359 348 340 343 339 344 343 344 341 332 326 321 315 309 298 293
168 174 140 171 211 86 164 177 177 219 128 197 156 150 145 145 137 119 95 79 71 54 28 8 5 353 350 352 351 349 348 351 349 340 341 336 333 325 321 318 320 317 311 303
151 202 192 204 198 231 74 132 131 147 246 165 161 166 166 174 224 105 117 75 50 33 19 3 353 345 0 2 357 352 356 352 349 345 336 328 324 326 325 320 318 310 310 302
151 196 207 180 254 103 114 136 160 233 72 155 167 166 170 200 44 105 105 77 43 23 7 355 358 9 2 7 355 350 350 348 338 332 327 322 319 317 315 314 311 309 304 299
180 197 196 218 254 240 149 150 224 65 143 148 153 151 134 115 115 98 80 48 24 13 17 13 10 6 4 2 358 346 340 342 330 324 319 317 323 328 325 319 313 308 305 302
196 349 22 335 38 126 160 53 109 130 135 140 137 135 133 129 115 104 83 50 35 29 16 14 4 2 360 3 353 334 341 336 329 326 325 326 322 320 318 310 301 302 305 303
138 145 173 184 124 146 157 122 146 136 131 130 127 125 129 121 119 110 77 56 56 52 33 19 6 6 2 359 350 346 350 337 334 328 324 321 319 324 319 308 302 301 295 291
35 166 158 95 129 129 163 156 134 125 123 120 116 111 108 115 103 98 98 90 77 58 37 21 10 3 358 351 345 360 340 343 335 333 333 327 326 325 323 313 305 297 292 293
189 142 210 45 149 233 155 150 145 138 135 128 123 115 100 102 107 116 102 93 70 49 30 22 13 3 356 350 343 357 345 349 344 342 337 333 328 334 329 330 328 314 260 273